Content
SEND FEEDBACK

Daily
Averages
Monthly
Summary
French Polynesia

HITIAA, FRENCH POLYNESIA


Home > Oceania > French Polynesia
Elevation: 7 feet     Latitude: 17 33S     Longitude: 149 37W

WEATHER
 
SELECT A DAY
Number of Records: 208,734;   Date Range: 6/30/96 - 8/31/14
 
SHARE

PRINT THIS DATA

[ ← Previous Day ]
WEATHER ALMANAC - JANUARY 28, 2013
[ Next Day → ]
[ °C ]   °F
Weather ElementAverageHighLow
Temperature82.2 °F87.8 °F (1:00 pm)77 °F (12:30 am)
Dewpoint73.1 °F77 °F (11:30 am)69.8 °F (1:00 am)
Humidity72.9 %83 % (12:30 am)59 % (2:00 pm)
Barometer29.86 in29.94 in (11:00 pm)29.80 in (3:06 am)
Wind Speed8.8 mph22.4 mph (2:00 pm)
Weather ElementAverage
Visibility6.9 mi
Wind DirectionNE (50.5 °)

Weather ElementTotal
Precipitation---
Cooling Degree Days17.4 (Base 65)
Growing Degree Days32.4 (Base 50)
Averaged from 55 records on January 28, 2013
WEATHER CONDITIONS BREAKOUT
WIND DIRECTION BREAKOUT
WEATHER BY HOUR - JANUARY 28, 2013
[ °C ]   °F
Local TimeTemperatureDewpointHumidityBarometerVisibilityWind DirectionWind SpeedGust SpeedPrecipitationEventsConditions
12:30 AM77.0 °F71.6 °F83 %29.86 in6.2 miEast (80°)12.7 mphMostly Cloudy
1:00 AM77.0 °F69.8 °F78 %29.86 in6.2 miEast (90°)11.5 mphMostly Cloudy
1:30 AM78.8 °F69.8 °F74 %29.83 in6.2 miENE (70°)5.8 mphMostly Cloudy
2:00 AM78.0 °F71.0 °F75 %29.84 in9.0 miENE (60°)8.1 mphPartly Cloudy
2:00 AM78.8 °F71.6 °F78 %29.83 in6.2 miENE (60°)8.1 mphMostly Cloudy
2:30 AM78.8 °F69.8 °F74 %29.83 in6.2 miENE (60°)6.9 mphMostly Cloudy
3:06 AM78.8 °F69.8 °F74 %29.80 in6.2 miENE (60°)8.1 mphMostly Cloudy
3:30 AM80.6 °F71.6 °F74 %29.80 inENE (70°)9.2 mph
4:00 AM78.8 °F71.6 °F78 %29.80 inENE (60°)9.2 mph
4:30 AM78.8 °F71.6 °F78 %29.83 inENE (60°)8.1 mph
5:00 AM80.0 °F71.0 °F69 %29.85 inEast (80°)9.2 mphClear
5:00 AM80.6 °F71.6 °F74 %29.83 inEast (80°)9.2 mph
5:30 AM80.6 °F71.6 °F74 %29.86 inEast (90°)5.8 mph
6:00 AM78.8 °F71.6 °F78 %29.86 in6.2 miEast (80°)6.9 mphMostly Cloudy
6:30 AM80.6 °F71.6 °F74 %29.86 in6.2 miENE (70°)4.6 mphMostly Cloudy
7:00 AM82.4 °F71.6 °F70 %29.86 in6.2 miNE (50°)5.8 mphMostly Cloudy
7:30 AM82.4 °F71.6 °F70 %29.86 in6.2 miNE (50°)5.8 mphScattered Clouds
8:00 AM82.0 °F72.0 °F65 %29.88 in9.0 miENE (60°)9.2 mphPartly Cloudy
8:00 AM82.4 °F71.6 °F70 %29.86 in6.2 miENE (60°)9.2 mphScattered Clouds
8:30 AM84.2 °F73.4 °F70 %29.89 in6.2 miNE (50°)8.1 mphScattered Clouds
9:00 AM86.0 °F75.2 °F70 %29.89 in6.2 miNE (40°)10.4 mphPartly Cloudy
9:30 AM84.2 °F73.4 °F70 %29.89 in5.0 miNorth (10°)12.7 mphRainLight Rain Showers
10:00 AM78.8 °F73.4 °F83 %29.89 in5.0 miNNE (20°)11.5 mphRainLight Rain Showers
10:30 AM82.4 °F75.2 °F79 %29.86 in6.2 miENE (60°)6.9 mphScattered Clouds
11:00 AM83.0 °F75.0 °F71 %29.88 in9.0 miNNE (30°)13.8 mphRainLight Rain Showers
11:00 AM84.2 °F75.2 °F74 %29.86 in6.2 miNNE (30°)13.8 mphMostly Cloudy
11:30 AM84.2 °F77.0 °F79 %29.86 in6.2 miNE (40°)9.2 mphScattered Clouds
12:00 PM86.0 °F77.0 °F74 %29.86 in6.2 miNE (40°)10.4 mphMostly Cloudy
12:30 PM86.0 °F77.0 °F74 %29.86 in6.2 miNE (40°)11.5 mphMostly Cloudy
1:00 PM87.8 °F75.2 °F66 %29.83 in6.2 miNE (40°)10.4 mphScattered Clouds
1:30 PM87.8 °F75.2 °F66 %29.83 in6.2 miNE (40°)11.5 mphPartly Cloudy
2:00 PM87.0 °F75.0 °F59 %29.84 in12.0 miNNE (30°)22.4 mphScattered Clouds
2:00 PM87.8 °F75.2 °F66 %29.83 in6.2 miNNE (30°)11.5 mphScattered Clouds
2:30 PM87.8 °F75.2 °F66 %29.83 in6.2 miNNE (30°)11.5 mphScattered Clouds
3:00 PM87.8 °F77.0 °F70 %29.83 in6.2 miNNE (30°)11.5 mphScattered Clouds
3:30 PM86.0 °F77.0 °F74 %29.83 in6.2 miNNE (30°)11.5 mphMostly Cloudy
4:00 PM86.0 °F75.2 °F70 %29.83 in6.2 miNE (40°)10.4 mphMostly Cloudy
4:30 PM86.0 °F75.2 °F70 %29.83 in6.2 miNE (40°)10.4 mphScattered Clouds
5:00 PM85.0 °F74.0 °F62 %29.83 in16.0 miNE (40°)10.4 mphScattered Clouds
5:00 PM84.2 °F73.4 °F70 %29.83 in6.2 miNE (40°)10.4 mphPartly Cloudy
5:30 PM84.2 °F75.2 °F74 %29.83 in6.2 miNE (40°)12.7 mphPartly Cloudy
6:00 PM84.2 °F75.2 °F74 %29.83 in6.2 miNE (40°)11.5 mphPartly Cloudy
6:30 PM82.4 °F75.2 °F79 %29.86 in6.2 miNE (40°)10.4 mphPartly Cloudy
7:00 PM82.4 °F73.4 °F74 %29.86 in6.2 miNE (50°)11.5 mphPartly Cloudy
7:30 PM82.4 °F73.4 °F74 %29.86 in6.2 miENE (60°)9.2 mphPartly Cloudy
8:00 PM82.0 °F73.0 °F69 %29.90 in12.0 miENE (60°)6.9 mphScattered Clouds
8:00 PM82.4 °F73.4 °F74 %29.89 in6.2 miENE (60°)6.9 mphPartly Cloudy
8:30 PM80.6 °F73.4 °F79 %29.89 in6.2 miENE (70°)4.6 mphPartly Cloudy
9:00 PM80.6 °F73.4 °F79 %29.89 in6.2 miEast (80°)4.6 mphPartly Cloudy
9:30 PM80.6 °F71.6 °F74 %29.92 in6.2 miVariable2.3 mphPartly Cloudy
10:00 PM78.8 °F71.6 °F78 %29.92 in6.2 miVariable2.3 mphPartly Cloudy
10:30 PM78.8 °F69.8 °F74 %29.92 in6.2 miVariable2.3 mphPartly Cloudy
11:00 PM79.0 °F70.0 °F67 %29.94 in12.0 miSE (140°)1.2 mphScattered Clouds
11:00 PM78.8 °F69.8 °F74 %29.92 in6.2 miVariable1.2 mphPartly Cloudy
11:30 PM78.8 °F69.8 °F74 %29.92 in6.2 miEast (100°)2.3 mphPartly Cloudy
Hourly data recorded from NTAA, located miles away from Hitiaa, French Polynesia







STORIES FROM OUR PARTNERS